Location: Coll
(42.4728°N, 0.7714°E)
Time: 00:41:17
(UTC+00:00)

Daily predictions for brighter satellites

Satellite Brightness Start Highest point End
(mag) Time Altitude Azimuth Time Altitude Azimuth Time Altitude Azimuth
USA 234 4.5 03:03:09 10° NE 03:07:46 31° N 03:07:46 31° N
CZ-2C R/B 4.1 03:10:28 10° NE 03:14:50 29° E 03:15:16 29° ESE
Cosmos 2344 3.6 03:25:17 61° S 03:26:30 71° ESE 03:34:13 10° NE
DELTA 2 R/B (1) 4.4 03:28:24 45° ESE 03:28:24 45° ESE 03:32:20 10° E
ADEOS Rocket 3.5 03:29:53 10° SE 03:35:12 50° ENE 03:40:31 10° N
NOSS 3-2 (C) 4.1 03:42:23 35° SSE 03:44:10 46° ESE 03:50:05 10° NE
Lacrosse 4 Rocket 3.7 03:50:57 14° SSE 03:53:11 21° ESE 03:56:15 10° ENE
BREEZE-M DEB (TANK) 3.7 04:02:12 30° E 04:02:12 30° E 04:03:26 10° E
CZ-4B R/B 3.7 03:58:48 10° SE 04:01:42 25° ENE 04:04:37 10° NNE
IDEFIX/ARIANE 42P 4.5 04:00:55 10° N 04:02:18 17° NNW 04:02:18 17° NNW
CENTAUR R/B 2.6 04:06:43 32° SSW 04:09:34 70° ESE 04:16:22 10° NE
Cosmos 1953 2.7 04:07:32 10° N 04:11:31 62° E 04:15:30 10° SSE
Cosmos 1269 Rocket 4.5 04:13:01 10° S 04:18:14 61° ESE 04:23:28 10° NNE
FENGYUN 3A 4.3 04:14:57 10° NNE 04:20:18 55° E 04:25:36 10° S
Cosmos 1048 Rocket 4.4 04:22:36 44° NW 04:22:36 44° NW 04:27:25 10° N
Cosmos 1110 Rocket 3.8 04:19:35 16° NNW 04:23:46 80° WSW 04:28:55 10° SSE
PAYLOAD A 4.1 04:21:24 10° N 04:26:16 52° WNW 04:27:06 47° WSW
Cosmos 1908 4.1 04:23:06 10° N 04:26:56 50° E 04:30:43 10° SSE
SJ-6F 4.3 04:25:33 10° NNE 04:29:40 86° ESE 04:33:45 10° SSW
PSLV R/B 4.0 04:25:53 10° N 04:29:15 43° NW 04:29:15 43° NW
USA 238 DEB 3.6 04:27:57 35° WSW 04:30:46 62° NW 04:37:37 10° NNE
USA 238 3.6 04:28:01 35° WSW 04:30:52 63° NW 04:37:43 10° NNE
KORONAS-FOTON 4.0 04:28:19 10° S 04:32:13 74° E 04:36:08 10° NNE
Geosat 3.9 04:29:15 10° SSE 04:34:13 64° WSW 04:37:53 18° NW
Nadezhda 4 Rocket 4.4 04:28:36 10° S 04:34:35 63° E 04:40:38 10° NNE
NOSS 3-2 (A) 3.6 04:35:10 37° W 04:37:03 49° NW 04:43:21 10° NNE
Cosmos 2142 Rocket 4.5 04:31:13 10° NNW 04:37:17 57° W 04:43:23 10° SSW
GP-B 3.3 04:38:51 40° WSW 04:39:39 45° W 04:43:55 10° NNW
BREEZE-M DEB (TANK) 4.5 04:37:32 30° WNW 04:40:19 86° SSW 04:58:15 10° SE
Cosmos 494 Rocket 4.3 04:39:32 35° WSW 04:41:05 45° WNW 04:46:10 10° N
Abrixas rocket 3.6 04:42:00 24° N 04:42:00 24° N 04:44:10 10° NE
CZ-4B R/B 4.2 04:42:00 10° NNE 04:46:18 73° ESE 04:50:23 10° S
Cosmos 1484 Rocket 2.6 04:43:22 10° N 04:47:17 80° WNW 04:51:06 10° SSW
Cosmos 44 Rocket 3.9 04:42:27 10° NNW 04:47:32 59° NE 04:52:38 10° SE
Cosmos 292 Rocket 3.7 04:42:46 10° NNW 04:47:37 71° WSW 04:52:27 10° S
ERS-2 2.2 04:46:13 10° S 04:49:45 49° W 04:51:59 20° NNW
ISS -1.6 04:49:51 10° SSW 04:52:39 25° SE 04:55:27 10° ENE
ATLAS 3B R/B 3.7 04:46:33 10° S 04:52:42 45° ESE 04:58:56 10° NE
CZ-2C R/B 3.1 04:48:34 10° N 04:53:02 33° WNW 04:54:39 26° WSW
Meteor 2-5 Rocket 4.3 04:47:56 10° S 04:53:29 62° E 04:59:09 10° NNE
Lacrosse 5 rocket 2.7 04:50:32 10° SSW 04:53:48 33° SE 04:57:10 10° ENE
Cosmos 1833 Rocket 3.0 04:52:28 10° SSW 04:58:04 72° ESE 05:03:43 10° NNE
Cosmos 1356 Rocket 3.8 04:55:19 10° NNW 04:59:18 39° W 05:03:13 10° SSW
Intercosmos 24 4.2 04:55:42 10° N 04:59:49 64° E 05:03:19 10° SSE
SL-19 R/B 3.3 04:58:39 10° NNE 05:01:30 76° WNW 05:04:18 10° SSW
Meteor 1-16 Rocket 4.3 04:59:27 10° NNW 05:04:30 46° W 05:09:33 10° SSW
SAR-Lupe-4 3.5 05:03:57 10° S 05:07:29 63° WSW 05:11:03 10° NNW
Cosmos 1461 4.4 05:04:18 10° S 05:08:30 42° ESE 05:12:54 10° NE
Cosmos 1674 3.2 05:05:01 10° SW 05:08:33 36° WNW 05:12:06 10° N
Cosmos 2279 Rocket 4.4 05:03:22 10° NNW 05:08:57 36° W 05:14:31 10° SSW
Cosmos 1025 Rocket 4.1 05:08:11 21° W 05:09:23 24° WNW 05:13:00 10° NNW
SJ-12 3.9 05:05:53 10° NNE 05:10:02 88° E 05:14:08 10° SSW
Cosmos 1606 Rocket 3.9 05:05:38 10° N 05:10:06 69° E 05:14:33 10° SSE
Cosmos 2082 Rocket 3.2 05:04:44 10° S 05:10:07 50° ESE 05:15:31 10° NE
Meteor 1-31 Rocket 2.8 05:06:19 10° N 05:10:12 58° WNW 05:14:04 10° SSW
COSMO-SKYMED 1 2.6 05:06:25 10° SSE 05:10:46 84° ENE 05:15:07 10° NNW
DELTA 2 R/B (1) 4.0 05:09:11 19° W 05:12:58 51° SSW 05:18:23 10° ESE
Cosmos 2251 Rocket 4.4 05:11:11 10° S 05:16:24 55° ESE 05:21:38 10° NNE
COSMOS 2406 3.2 05:13:51 10° SW 05:19:26 61° WNW 05:25:03 10° NNE
Cosmos 2228 3.0 05:16:38 10° N 05:21:00 84° W 05:25:21 10° S
ADEOS Rocket 3.9 05:17:01 10° SW 05:21:05 21° W 05:25:09 10° NW
ALOS 2.8 05:18:40 10° N 05:22:58 37° WNW 05:27:14 10° SW
SAR-Lupe-1 4.5 05:21:57 10° S 05:25:19 40° W 05:28:43 10° NNW
PSLV R/B 3.9 05:21:13 10° S 05:25:23 75° WSW 05:29:37 10° NNW
Cosmos 1400 Rocket 3.4 05:23:22 10° N 05:27:18 59° ENE 05:31:10 10° SSE
CZ-2C R/B 3.2 05:27:40 10° SW 05:28:28 11° SSW 05:29:16 10° S
Cosmos 1626 2.3 05:26:33 10° SSW 05:30:06 46° W 05:33:42 10° N
Lacrosse 4 Rocket 2.0 05:27:56 10° WSW 05:31:38 34° NW 05:35:22 10° NNE
Cosmos 2026 Rocket 4.2 05:26:22 10° S 05:32:42 83° E 05:39:07 10° N
Cosmos 2058 Rocket 3.8 05:28:45 10° N 05:33:14 60° E 05:37:39 10° SSE
CZ-4B R/B 2.9 05:31:27 10° SW 05:33:56 18° W 05:36:26 10° NW
ADEOS 4.3 05:30:30 10° N 05:35:02 31° WNW 05:39:33 10° SW
NOSS 3-2 (C) 4.1 05:29:56 10° WSW 05:35:12 35° NW 05:41:11 10° NNE
Cosmos 2195 Rocket 4.5 05:30:18 10° S 05:36:33 80° W 05:42:46 10° N
Cosmos 1656 4.2 05:31:25 10° NW 05:36:43 40° WSW 05:41:58 10° S
Cosmos 1689 Rocket 2.6 05:34:20 10° SSW 05:37:04 35° W 05:39:49 10° NNW
ARGOS Delta rocket 4.4 05:34:42 10° N 05:39:48 48° WNW 05:45:01 10° SW
Cosmos 1697 Rocket 2.7 05:36:07 10° NNW 05:41:45 68° WSW 05:47:21 10° SSE
Cosmos 2344 4.5 05:35:21 10° W 05:41:47 30° NNW 05:48:56 10° NNE
Meteor PRIRODA 4.0 05:42:51 10° N 05:46:19 42° WNW 05:49:46 10° SW
Cosmos 1892 Rocket 3.5 05:43:46 10° SSW 05:48:04 65° W 05:52:25 10° N
CZ-4B R/B 3.6 05:51:53 10° N 05:55:24 32° WNW 05:59:03 10° SW
